TIME,DELAY(SENSOR),PRES,OXYGEN,RAWTEMP,T(OPTODE),TCPHASE,FLUOR,BETA(BETA700),BETA(BETA412),BETA(BETA440),CDOM,C(CSC),ED(ED412.40),ED(ED444.00),ED(ED489.70),ED(ED554.30),LU(LU411.80),LU(LU443.40),LU(LU489.60),LU(LU554.10),COMP,TILTX,TILTY,CHECK
1343101151,5808,906.1199951171875000,45.3388595581054700,661.7644042968750000,4.5698680877685550,54.2274589538574200,53,101,86,80,82,15382,2147760676,2147421202,2148004937,2147873152,2147644745,2147062921,2148259090,2147198564,901,5,13,29105
1343104747,5807,975.3699951171875000,47.2685317993164060,669.1380004882812000,4.3266677856445310,54.0443000793457000,53,100,88,77,82,15382,2147756836,2147422601,2148008539,2147875318,2147642971,2147059894,2148257398,2147198912,3419,4,13,62574
1343108347,5806,980.4899902343750000,46.9213294982910160,669.3883056640625000,4.3184008598327640,54.0933189392089840,53,99,92,79,81,15381,2147758473,2147421312,2148005787,2147874432,2147641828,2147057563,2148260763,2147202861,3463,4,13,33755
1343111947,5810,980.8099975585938000,47.5841903686523440,671.0325927734375000,4.2640800476074220,54.0194282531738300,52,100,88,81,81,15383,2147760530,2147418368,2148007286,2147878317,2147644489,2147059437,2148259620,2147198153,973,5,13,25788
1343115547,5811,988.0599975585938000,47.9900588989257800,672.2094726562500000,4.2251801490783690,53.9800300598144500,53,98,93,79,83,15374,2147760438,2147419803,2148008109,2147875300,2147645366,2147060260,2148266633,2147201892,269,5,13,17720
1343119147,5808,987.2999877929688000,48.0271606445312500,672.8950805664062000,4.2025151252746580,53.9809188842773440,53,98,89,79,82,15367,2147760128,2147419117,2148011227,2147874733,2147645705,2147054738,2148262381,2147196022,3550,5,13,65225
1343122747,5807,995.2299804687500000,48.2841987609863300,673.4791259765625000,4.1832032203674320,53.9533882141113300,53,99,88,79,82,15371,2147759552,2147420123,2148007725,2147877019,2147642944,2147058843,2148259200,2147197997,544,5,13,52839
1343126347,5809,997.0399780273438000,47.7518005371093750,672.6276245117188000,4.2113609313964840,54.0144805908203100,53,99,89,80,83,15370,2147759040,2147420443,2148009280,2147876955,2147645403,2147058294,2148259282,2147199707,83,5,13,45316
1343129947,5810,992.4000244140625000,47.7782707214355500,673.0651245117188000,4.1968941688537600,54.0173301696777340,53,99,89,79,82,15367,2147760530,2147423268,2148008073,2147875766,2147646089,2147059291,2148255158,2147201874,128,5,13,22067
1343133547,5806,998.1900024414062000,48.3234405517578100,673.4260253906250000,4.1849579811096190,53.9434089660644500,52,98,88,79,82,15366,2147759506,2147422144,2148006281,2147875739,2147647396,2147061787,2148260836,2147197001,283,5,13,22167
1343137147,5809,995.2000122070312000,47.8461303710937500,672.9265136718750000,4.2014770507812500,54.0046806335449200,53,98,89,79,81,15360,2147759853,2147423213,2148006774,2147875364,2147647204,2147058340,2148258715,2147203584,3472,5,13,36312
1343140747,5811,1002.7000122070312000,47.6271286010742200,672.8659057617188000,4.2034797668457030,54.0396995544433600,52,99,89,79,82,15369,2147762596,2147423515,2148007067,2147874057,2147642349,2147062482,2148256932,2147200758,505,5,13,62783
1343144347,5808,1009.6699829101562000,46.9655609130859400,671.1746215820312000,4.2593860626220700,54.1094512939453100,53,97,87,79,82,15368,2147760905,2147422171,2148006592,2147876745,2147646509,2147057499,2148259364,2147196525,131,5,13,48195
1343147947,5810,1009.0399780273438000,46.3786697387695300,671.3278198242188000,4.2543239593505860,54.1924896240234400,53,99,87,79,81,15359,2147758409,2147423305,2148010578,2147875090,2147642806,2147058230,2148258505,2147200064,64,5,13,18893
1343151547,5810,1009.2700195312500000,46.6987304687500000,671.0703125000000000,4.2628359794616700,54.1486015319824200,53,100,86,79,81,15367,2147763373,2147417920,2148006144,2147875638,2147642834,2147057709,2148261961,2147201746,3234,4,13,56716
1343155147,5808,1006.5800170898438000,46.7588996887207000,671.5280761718750000,4.2477040290832520,54.1437492370605500,51,101,87,79,81,15364,2147756882,2147421723,2148009206,2147874560,2147647012,2147062390,2148260973,2147198509,202,4,13,19350
1343158747,5810,997.6199951171875000,47.3221702575683600,673.4088745117188000,4.1855220794677730,54.0844802856445300,52,98,85,79,83,15368,2147762176,2147422985,2148006976,2147873124,2147644251,2147060534,2148261787,2147199707,253,5,13,7904
1343162347,5809,998.2700195312500000,48.0611801147460940,674.1154174804688000,4.1621527671813965,53.9905891418457000,52,98,86,76,81,15365,2147763227,2147425179,2148008045,2147873755,2147645056,2147067273,2148263762,2147196690,3412,5,13,34491
1343165947,5813,996.4899902343750000,48.3269195556640600,674.3209838867188000,4.1553521156311035,53.9570198059082000,53,100,87,80,82,15365,2147760740,2147422061,2148005650,2147875428,2147643474,2147056082,2148259419,2147195657,359,5,13,6504
1343169547,5811,991.8599853515625000,49.5630989074707000,675.0184936523438000,4.1322751045227050,53.7958908081054700,52,99,88,78,82,15366,2147761389,2147426953,2148009828,2147876260,2147642944,2147057124,2148259867,2147197778,3508,5,13,62808
1343173147,5810,995.1599731445312000,50.0631217956543000,675.4970703125000000,4.1164379119873050,53.7346992492675800,52,97,89,78,81,15365,2147761344,2147422043,2148006930,2147874761,2147643547,2147057453,2148258569,2147193609,17,4,13,10420
1343176747,5812,993.8300170898438000,49.7495002746582000,675.1173706054688000,4.1290020942687990,53.7713203430175800,52,101,88,79,81,15365,2147762221,2147422464,2148006546,2147875483,2147646070,2147053897,2148258066,2147199277,3297,4,13,52760
1343180347,5807,997.9600219726562000,50.1699981689453100,675.7960815429688000,4.1065368652343750,53.7217597961425800,52,100,88,79,81,15361,2147761133,2147423469,2148005805,2147875538,2147642413,2147059712,2148259218,2147200210,156,5,13,9170
1343183947,5808,1001.5200195312500000,48.6985702514648440,674.8806152343750000,4.1368389129638670,53.9089698791503900,52,98,88,78,81,15360,2147762852,2147421641,2148006848,2147874706,2147645467,2147055570,2148261933,2147197997,3419,5,13,3436
1343187547,5813,1006.1599731445312000,48.5010414123535160,673.2493286132812000,4.1908001899719240,53.9179382324218750,52,100,90,79,82,15364,2147762660,2147423844,2148006994,2147875273,2147642203,2147060004,2148262848,2147198134,13,5,13,2490
1343191147,5807,1005.2500000000000000,47.9383583068847660,672.7000122070312000,4.2089648246765140,53.9947814941406250,52,104,90,78,83,15358,2147760045,2147422528,2148005421,2147878701,2147643492,2147060708,2148265362,2147200228,251,5,13,57448
1343194747,5810,1012.5300292968750000,48.6492309570312500,673.4483032226562000,4.1842188835144040,53.9034805297851560,53,102,87,78,82,15361,2147755766,2147420077,2148009005,2147876342,2147641472,2147058541,2148256137,2147199552,3486,4,13,22042
1343198347,5807,1011.2500000000000000,47.0014610290527340,672.4180908203125000,4.2182850837707520,54.1187705993652340,53,99,89,80,82,15360,2147759771,2147419053,2148007012,2147875840,2147641993,2147059501,2148261659,2147198692,117,5,13,54635
1343201947,5807,1011.5599975585938000,46.9226493835449200,672.6939697265625000,4.2091641426086430,54.1353988647460940,53,98,89,78,81,15357,2147758473,2147421412,2148007341,2147876525,2147643328,2147057517,2148259328,2147202048,462,4,13,19078
1343205547,5807,1004.9500122070312000,46.9221305847168000,672.8944702148438000,4.2025318145751950,54.1355094909668000,52,98,88,79,82,15357,2147758957,2147421110,2148007286,2147874733,2147646747,2147062866,2148258669,2147197942,3410,5,13,57656
1343209147,5809,1003.4199829101562000,48.7210502624511700,673.4313964843750000,4.1847782135009770,53.8912086486816400,52,100,87,78,82,15356,2147759808,2147421156,2148008054,2147875309,2147642166,2147062637,2148255835,2147195657,283,5,13,21008
1343212747,5810,1000.2100219726562000,48.4432983398437500,673.7429199218750000,4.1744751930236820,53.9334297180175800,52,99,88,78,83,15356,2147757869,2147421412,2148006436,2147874742,2147644772,2147063286,2148264356,2147200192,258,5,13,61343
1343216347,5808,1009.8599853515625000,48.5035018920898440,674.9625244140625000,4.1341290473937990,53.9389991760253900,52,98,90,80,82,15355,2147764434,2147423323,2148007515,2147874843,2147644635,2147056192,2148260315,2147198509,3294,5,13,40352
1343219947,5810,1011.2500000000000000,48.2438316345214840,673.3610839843750000,4.1871051788330080,53.9530601501464840,52,98,85,78,81,15358,2147758692,2147422326,2148006427,2147876708,2147643821,2147060617,2148262555,2147196672,260,5,13,65
1343223547,5809,1010.7199707031250000,48.5629081726074200,673.6843872070312000,4.1764087677001950,53.9125404357910160,52,97,89,78,82,15354,2147763200,2147420928,2148008932,2147877851,2147647360,2147058578,2148258944,2147197641,248,5,13,18327
1343227147,5813,1008.4199829101562000,48.3754806518554700,673.6381225585938000,4.1779417991638180,53.9406394958496100,51,96,88,78,83,15356,2147760000,2147422948,2148008082,2147877897,2147645366,2147063606,2148263067,2147197961,214,5,13,7397
1343230747,5808,1011.5700073242188000,48.7186698913574200,673.7390136718750000,4.1746039390563965,53.8963508605957000,52,100,89,79,81,15353,2147761682,2147421366,2148007899,2147875437,2147645211,2147062930,2148262006,2147193472,66,5,13,34654
1343234347,5810,1014.0700073242188000,48.0716285705566400,673.4102783203125000,4.1854739189147950,53.9842605590820300,53,99,88,79,83,15354,2147759122,2147422592,2148009042,2147875867,2147645750,2147061531,2148260763,2147197202,3570,4,13,2112
1343237947,5811,1015.6699829101562000,48.0496902465820300,673.7020263671875000,4.1758308410644530,53.9859809875488300,53,101,89,79,81,15356,2147759314,2147419776,2148010221,2147875346,2147648073,2147059638,2148257389,2147197028,129,5,13,42084
1343241547,5810,1016.2299804687500000,47.6842613220214840,672.7183227539062000,4.2083611488342285,54.0242996215820300,52,99,85,81,83,15356,2147762038,2147418916,2148006820,2147877302,2147644736,2147057499,2148258057,2147200256,345,4,13,50081
1343245147,5809,1008.2700195312500000,47.7073593139648440,673.1176147460938000,4.1951580047607420,54.0282211303710940,52,100,91,80,82,15356,2147758409,2147420864,2148007131,2147876342,2147644397,2147061504,2148257526,2147198180,26,5,13,48733
1343245854,5811,1007.7299804687500000,47.6562309265136700,673.2330932617188000,4.1913380622863770,54.0363502502441400,52,106,87,80,82,15370,2147758985,2147420096,2148005558,2147873609,2147642304,2147060562,2148261805,2147198043,3412,4,13,45229
